Regional Weather Roundup
Issued by NWS Sterling, VA

Home | Current Version | Previous Version | Graphics & Text | Print | Product List | Glossary On
Versions: 1 2 3 4 5 6 7 8 9 10 11 12 13 14 15 16 17 18 19 20 21 22 23 24 25 26 27
000
ASUS41 KLWX 212011
RWRLWX

REGIONAL WEATHER ROUNDUP
NATIONAL WEATHER SERVICE BALTIMORE MD/WASHINGTON DC
300 PM EST SUN JAN 21 2018

Note: "FAIR" indicates few or no clouds below 12,000 feet
with no significant weather and/or obstructions to visibility.
 TC=TEMPERATURE CELSIUS

 * =Non NWS site. Station does not report precipitation (e.g. rain,
    snow, etc.), thunder, or fog.

DCZ001-MDZ009-015-VAZ040>042-051-053>054-212100-
WASHINGTON METRO

CITY           SKY/WX    TMP DP  RH WIND       PRES   REMARKS
WASHINGTON NAT PTSUNNY   60  39  45 S6        30.14F
DULLES         PTSUNNY   62  42  47 SE7       30.12F
ANDREWS AFB    PTSUNNY   62  39  43 S6        30.12F
FT BELVOIR     PTSUNNY   63  40  43 S9          N/A
COLLEGE PARK*  CLOUDY    60  38  43 CALM      30.13F
LEESBURG*      CLOUDY    63  43  48 E3        30.13S
MANASSAS*      FAIR      65  43  44 S9        30.12F
GAITHERSBURG*  CLOUDY    58  38  47 SE7       30.14R

$$

MDZ006>007-011-014-212100-
BALTIMORE METRO

CITY           SKY/WX    TMP DP  RH WIND       PRES   REMARKS
BWI AIRPORT    PTSUNNY   56  38  50 SE8       30.14F
MD SCIENCE CTR   N/A     54  36  50 MISG      30.16S
MARTIN STATE   PTSUNNY   50  39  66 SE7       30.17F
ANNAPOLIS      CLOUDY    44  37  76 SE8       30.15F
FORT MEADE*    PTSUNNY   57  37  47 SE7       30.16S

$$

MDZ012-015-019>023-212100-
MARYLAND EASTERN SHORE

CITY           SKY/WX    TMP DP  RH WIND       PRES   REMARKS
OCEAN CITY     FAIR      51  36  56 SE5       30.19S
SALISBURY      FAIR      60  39  45 SW6       30.16F
BAY BRIDGE AP* CLOUDY    54  37  54 S6        30.15F
CAMBRIDGE*     SUNNY     57  37  47 S8G15     30.17S
EASTON*        MOSUNNY   59  37  44 S6        30.20S

$$

MDZ017>025-212100-
SOUTHERN MARYLAND

CITY           SKY/WX    TMP DP  RH WIND       PRES   REMARKS
PATUXENT RIVER NOT AVBL
ST INIGOES     FAIR      58  40  51 SE8       30.16S
LEONARDTOWN*   FAIR      61  37  41 SE8       30.17S

$$

MDZ003>005-212100-
NORTH CENTRAL MARYLAND

CITY           SKY/WX    TMP DP  RH WIND       PRES   REMARKS
FREDERICK*     CLOUDY    59  34  38 W5        30.15F
HAGERSTOWN APT CLOUDY    56  41  57 S5        30.11S
WESTMINSTER*   CLOUDY    57  43  58 S5        30.12F

$$

MDZ501>502-212100-
WESTERN MARYLAND

CITY           SKY/WX    TMP DP  RH WIND       PRES   REMARKS
OAKLAND*       CLOUDY    43  43 100 SW8       30.09S
CUMBERLAND*    PTSUNNY   57  45  62 SW5       30.15S

$$

VAZ025>031-212100-
SHENANDOAH VALLEY

CITY           SKY/WX    TMP DP  RH WIND       PRES   REMARKS
WINCHESTER*    CLOUDY    59  43  55 SW3       30.12S
FRONT ROYAL*   CLOUDY    63  43  48 MISG      30.10F
LURAY*         CLOUDY    64  43  45 S9        30.11S
NEW MARKET*    CLOUDY    63  41  45 S8        30.10S
STAUNTON*      CLOUDY    60  42  50 S14       30.14F
WAYNESBORO*    CLOUDY    60  42  53 SW6       30.14F

$$

WVZ021-048>050-054>055-212100-
EASTERN WEST VIRGINIA PANHANDLE

CITY           SKY/WX    TMP DP  RH WIND       PRES   REMARKS
MARTINSBURG    CLOUDY    60  43  53 CALM      30.10S
PETERSBURG*    CLOUDY    57  45  62 CALM      30.11F

$$

VAZ036>039-050-212100-
CENTRAL FOOTHILLS

CITY           SKY/WX    TMP DP  RH WIND       PRES   REMARKS
CHARLOTTESVILL CLOUDY    67  43  41 CALM      30.12F
CULPEPER*      PTSUNNY   67  41  39 S6        30.12F
ORANGE*        CLOUDY    64  43  45 SW9       30.12F
GORDONSVILLE*  CLOUDY    67  46  45 S7        30.12S
WARRENTON*     PTSUNNY   68  39  33 SW7       30.11F

$$

VAZ055>057-212100-
NORTH AND CENTRAL PIEDMONT

CITY           SKY/WX    TMP DP  RH WIND       PRES   REMARKS
FREDERICKSBRG* PTSUNNY   66  46  48 SE9       30.12S
STAFFORD*      CLOUDY    67  44  44 S9        30.16F

$$

NCZ024-NYZ072-PAZ021-071-VAZ022-071-212100-
OTHER REGIONAL OBSERVATIONS

CITY           SKY/WX    TMP DP  RH WIND       PRES   REMARKS
NEW YORK CITY  FAIR      50  29  44 VRB3      30.15S
PHILADELPHIA   CLOUDY    52  37  56 SW7       30.16S
PITTSBURGH     CLOUDY    50  42  74 SW8       30.06S
ROANOKE        CLOUDY    60  42  51 W9        30.19S
RICHMOND       FAIR      66  40  38 S12       30.15F
RALEIGH        FAIR      68  43  40 SW8       30.19F

$$

ANZ530>537-212100-
MARINE OBSERVATIONS

STATION/POSITION TIME  TEMP    WIND        PRES
                       AIR SEA DIR/SP/G
                 (UTC) (F)     (DEG/KT/KT) (MB)
THOMAS PT LIGHT  2000   47 33  170/  7/  7   N/A
BALT KEY BRIDGE  1948   47     120/ 11/ 12 1021.0F
COVE POINT       1948   47     180/ 11/ 12 1022.2F
LEWISETTA        1948   41 35   90/  6/  7 1021.2F
SOLOMONS ISLAND  1948   49 35  130/ 12/ 13 1021.0F
PINEY POINT      1942          140/ 13/ 13   N/A

$$





USA.gov is the U.S. government's official web portal to all federal, state and local government web resources and services.